When you browse on this site, cookies collect data to enhance your experience and personalize the content and advertising you see.
Visit our Privacy Policy to learn more. By continuing to use the site, you agree to this use of cookies and data.
  • en Suisse
  • Liste des pays
  • À 7 jours
  • Température de l'eau
  • Carte météo
  • Widgets météo
  • user-avatar
    Se connecter

    Météo par heure à Montpellier

    Ce jour, 19 Novembre, Mardi

    Heure Température Précipitation Vent Pression Humidité
    00:00 +3°C° 0 mm 6 m/s 758 mmHg 70%
    01:00 +3°C° 0 mm 6 m/s 758 mmHg 70%
    02:00 +3°C° 0 mm 5 m/s 757 mmHg 69%
    03:00 +2°C° 0 mm 5 m/s 757 mmHg 69%
    04:00 +3°C° 0 mm 5 m/s 757 mmHg 70%
    05:00 +3°C° 0 mm 5 m/s 757 mmHg 70%
    06:00 +3°C° 0 mm 5 m/s 757 mmHg 71%
    07:00 +5°C° 0 mm 5 m/s 758 mmHg 69%
    08:00 +6°C° 0 mm 5 m/s 758 mmHg 67%
    09:00 +7°C° 0 mm 5 m/s 758 mmHg 64%
    10:00 +8°C° 0 mm 4 m/s 758 mmHg 61%
    11:00 +10°C° 0 mm 4 m/s 757 mmHg 57%
    12:00 +11°C° 0 mm 4 m/s 757 mmHg 54%
    13:00 +11°C° 0 mm 3 m/s 757 mmHg 56%
    14:00 +11°C° 0 mm 3 m/s 757 mmHg 59%
    15:00 +11°C° 0 mm 3 m/s 757 mmHg 61%
    16:00 +10°C° 0 mm 3 m/s 757 mmHg 64%
    17:00 +9°C° 0 mm 3 m/s 757 mmHg 67%
    18:00 +7°C° 0 mm 4 m/s 758 mmHg 69%
    19:00 +7°C° 0 mm 4 m/s 758 mmHg 71%
    20:00 +7°C° 0 mm 3 m/s 758 mmHg 73%
    21:00 +7°C° 0 mm 3 m/s 758 mmHg 75%
    22:00 +7°C° 0 mm 3 m/s 758 mmHg 74%
    23:00 +5°C° 0 mm 3 m/s 758 mmHg 74%

    Demain, 20 Novembre, Mercredi

    Heure Température Précipitation Vent Pression Humidité
    00:00 +5°C° 0 mm 3 m/s 758 mmHg 74%
    01:00 +5°C° 0 mm 3 m/s 758 mmHg 73%
    02:00 +5°C° 0 mm 3 m/s 757 mmHg 73%
    03:00 +5°C° 0 mm 3 m/s 757 mmHg 73%
    04:00 +7°C° 0 mm 2 m/s 757 mmHg 73%
    05:00 +7°C° 0 mm 2 m/s 757 mmHg 73%
    06:00 +7°C° 0 mm 2 m/s 757 mmHg 73%
    07:00 +7°C° 0 mm 2 m/s 757 mmHg 70%
    08:00 +8°C° 0 mm 2 m/s 756 mmHg 68%
    09:00 +9°C° 0 mm 2 m/s 756 mmHg 66%
    10:00 +9°C° 0 mm 2 m/s 756 mmHg 66%
    11:00 +10°C° 0 mm 2 m/s 755 mmHg 66%
    12:00 +11°C° 0 mm 3 m/s 755 mmHg 65%
    13:00 +11°C° 0 mm 3 m/s 755 mmHg 68%
    14:00 +11°C° 0 mm 3 m/s 754 mmHg 70%
    15:00 +11°C° 0 mm 3 m/s 754 mmHg 73%
    16:00 +11°C° 0 mm 4 m/s 754 mmHg 75%
    17:00 +10°C° 0 mm 4 m/s 754 mmHg 77%
    18:00 +10°C° 0 mm 4 m/s 755 mmHg 80%
    19:00 +9°C° 0.1 mm 5 m/s 755 mmHg 81%
    20:00 +9°C° 0.1 mm 5 m/s 755 mmHg 82%
    21:00 +9°C° 0.1 mm 5 m/s 755 mmHg 83%
    22:00 +9°C° 0.1 mm 5 m/s 755 mmHg 83%
    23:00 +9°C° 0.1 mm 5 m/s 755 mmHg 83%

    Après-demain, 21 Novembre, Jeudi

    Heure Température Précipitation Vent Pression Humidité
    00:00 +9°C° 0.1 mm 5 m/s 754 mmHg 84%
    01:00 +9°C° 0.3 mm 5 m/s 754 mmHg 85%
    02:00 +9°C° 0.3 mm 5 m/s 754 mmHg 86%
    03:00 +9°C° 0.3 mm 6 m/s 754 mmHg 87%
    04:00 +9°C° 1 mm 6 m/s 754 mmHg 87%
    05:00 +9°C° 1 mm 6 m/s 754 mmHg 88%
    06:00 +9°C° 1 mm 6 m/s 753 mmHg 89%
    07:00 +9°C° 1 mm 5 m/s 753 mmHg 88%
    08:00 +10°C° 1 mm 5 m/s 754 mmHg 87%
    09:00 +10°C° 1 mm 5 m/s 754 mmHg 86%
    10:00 +12°C° 0.8 mm 5 m/s 754 mmHg 84%
    11:00 +12°C° 0.8 mm 5 m/s 753 mmHg 82%
    12:00 +13°C° 0.8 mm 5 m/s 753 mmHg 79%
    13:00 +13°C° 0.5 mm 4 m/s 753 mmHg 79%
    14:00 +12°C° 0.5 mm 3 m/s 753 mmHg 79%
    15:00 +12°C° 0.5 mm 3 m/s 753 mmHg 78%
    16:00 +13°C° 0.2 mm 2 m/s 753 mmHg 81%
    17:00 +12°C° 0.2 mm 2 m/s 753 mmHg 83%
    18:00 +10°C° 0.2 mm 2 m/s 754 mmHg 86%
    19:00 +10°C° 0.2 mm 2 m/s 754 mmHg 88%
    20:00 +10°C° 0.2 mm 2 m/s 754 mmHg 89%
    21:00 +9°C° 0.2 mm 2 m/s 755 mmHg 91%
    22:00 +9°C° 0.1 mm 2 m/s 754 mmHg 91%
    23:00 +9°C° 0.1 mm 2 m/s 754 mmHg 92%

    22 Novembre, Vendredi

    Heure Température Précipitation Vent Pression Humidité
    00:00 +9°C° 0.1 mm 3 m/s 754 mmHg 93%
    01:00 +9°C° 0.1 mm 3 m/s 754 mmHg 92%
    02:00 +9°C° 0.1 mm 3 m/s 753 mmHg 92%
    03:00 +8°C° 0.1 mm 4 m/s 753 mmHg 92%
    04:00 +8°C° 0 mm 4 m/s 753 mmHg 91%
    05:00 +8°C° 0 mm 5 m/s 753 mmHg 91%
    06:00 +8°C° 0 mm 5 m/s 752 mmHg 90%
    07:00 +9°C° 0.1 mm 6 m/s 752 mmHg 86%
    08:00 +11°C° 0.1 mm 6 m/s 752 mmHg 82%
    09:00 +12°C° 0.1 mm 7 m/s 752 mmHg 77%
    10:00 +12°C° 0.4 mm 8 m/s 751 mmHg 78%
    11:00 +12°C° 0.4 mm 9 m/s 750 mmHg 78%
    12:00 +13°C° 0.4 mm 11 m/s 749 mmHg 78%
    13:00 +13°C° 0.5 mm 11 m/s 749 mmHg 79%
    14:00 +13°C° 0.5 mm 11 m/s 748 mmHg 79%
    15:00 +13°C° 0.5 mm 10 m/s 748 mmHg 80%
    16:00 +12°C° 0.6 mm 11 m/s 747 mmHg 81%
    17:00 +12°C° 0.6 mm 11 m/s 747 mmHg 82%
    18:00 +12°C° 0.6 mm 11 m/s 747 mmHg 83%
    19:00 +12°C° 2.6 mm 11 m/s 746 mmHg 86%
    20:00 +12°C° 2.6 mm 11 m/s 746 mmHg 90%
    21:00 +12°C° 2.6 mm 10 m/s 745 mmHg 93%
    22:00 +13°C° 2 mm 11 m/s 745 mmHg 92%
    23:00 +13°C° 2 mm 11 m/s 745 mmHg 91%

    23 Novembre, Samedi

    Heure Température Précipitation Vent Pression Humidité
    00:00 +13°C° 2 mm 11 m/s 744 mmHg 90%
    01:00 +13°C° 3.8 mm 9 m/s 744 mmHg 92%
    02:00 +12°C° 3.8 mm 7 m/s 743 mmHg 94%
    03:00 +13°C° 3.8 mm 5 m/s 743 mmHg 96%
    04:00 +12°C° 3.3 mm 5 m/s 743 mmHg 92%
    05:00 +12°C° 3.3 mm 5 m/s 743 mmHg 88%
    06:00 +10°C° 3.3 mm 5 m/s 743 mmHg 85%
    07:00 +10°C° 0.2 mm 5 m/s 744 mmHg 83%
    08:00 +10°C° 0.2 mm 6 m/s 745 mmHg 81%
    09:00 +9°C° 0.2 mm 6 m/s 745 mmHg 79%
    10:00 +10°C° 0 mm 6 m/s 746 mmHg 77%
    11:00 +10°C° 0 mm 6 m/s 746 mmHg 76%
    12:00 +10°C° 0 mm 6 m/s 746 mmHg 74%
    13:00 +10°C° 0 mm 5 m/s 747 mmHg 74%
    14:00 +10°C° 0 mm 5 m/s 747 mmHg 74%
    15:00 +10°C° 0 mm 5 m/s 748 mmHg 74%
    16:00 +10°C° 0 mm 5 m/s 748 mmHg 75%
    17:00 +10°C° 0 mm 5 m/s 749 mmHg 76%
    18:00 +10°C° 0 mm 4 m/s 750 mmHg 77%
    19:00 +10°C° 0 mm 4 m/s 750 mmHg 78%
    20:00 +10°C° 0 mm 4 m/s 751 mmHg 78%
    21:00 +10°C° 0 mm 4 m/s 752 mmHg 79%
    22:00 +10°C° 0 mm 4 m/s 752 mmHg 79%
    23:00 +10°C° 0 mm 4 m/s 753 mmHg 80%

    24 Novembre, Dimanche

    Heure Température Précipitation Vent Pression Humidité
    00:00 +10°C° 0 mm 4 m/s 753 mmHg 80%
    01:00 +9°C° 0 mm 5 m/s 754 mmHg 79%
    02:00 +9°C° 0 mm 5 m/s 754 mmHg 78%
    03:00 +9°C° 0 mm 6 m/s 754 mmHg 77%
    04:00 +9°C° 0 mm 6 m/s 755 mmHg 77%
    05:00 +9°C° 0 mm 6 m/s 755 mmHg 77%
    06:00 +8°C° 0 mm 6 m/s 756 mmHg 77%
    07:00 +9°C° 0 mm 6 m/s 757 mmHg 75%
    08:00 +10°C° 0 mm 5 m/s 757 mmHg 72%
    09:00 +12°C° 0 mm 5 m/s 758 mmHg 70%
    10:00 +13°C° 0 mm 5 m/s 758 mmHg 67%
    11:00 +14°C° 0 mm 5 m/s 758 mmHg 63%
    12:00 +15°C° 0 mm 4 m/s 758 mmHg 59%
    13:00 +14°C° 0 mm 4 m/s 758 mmHg 62%
    14:00 +14°C° 0 mm 3 m/s 758 mmHg 65%
    15:00 +14°C° 0 mm 3 m/s 758 mmHg 67%
    16:00 +13°C° 0 mm 3 m/s 758 mmHg 70%
    17:00 +12°C° 0 mm 2 m/s 759 mmHg 73%
    18:00 +10°C° 0 mm 2 m/s 759 mmHg 76%
    19:00 +10°C° 0 mm 2 m/s 759 mmHg 76%
    20:00 +10°C° 0 mm 2 m/s 759 mmHg 76%
    21:00 +9°C° 0 mm 2 m/s 759 mmHg 76%
    22:00 +10°C° 0 mm 1 m/s 759 mmHg 76%
    23:00 +10°C° 0 mm 1 m/s 759 mmHg 75%
    Voir plus